Tracking 19969 objects as of 12-Nov-2019
Live streaming from Space Station
objects crossing your sky now
Track the group of recently launched Starlink satellites

COSMOS 1275 DEB

Track COSMOS 1275 DEB now!
10-day predictions


NORAD ID: 42197
Int'l Code: 1981-053TM
Perigee: 928.9 km
Apogee: 1,106.9 km
Inclination: 82.9 °
Period: 105.3 minutes
Semi major axis: 7388 km
RCS: Unknown
Launch date: June 4, 1981
Source: Commonwealth of Independent States (former USSR) (CIS)
Launch site: PLESETSK MISSILE AND SPACE COMPLEX (PKMTR)

Note: This is SATELLITE DEBRIS
aabbcc
Your satellite tracking list
Your tracking list is empty




NASA's NSSDC Master Catalog

Two Line Element Set (TLE):
1 42197U 81053TM  19314.46842592 +.00000100 +00000-0 +96385-4 0  9994
2 42197 082.8518 008.7560 0120470 051.2698 309.9149 13.66895006297544
Source of the keplerian elements: AFSPC